Phoenix Deer Valley, AZ

5:51 PM MST on August 23, 2019 (GMT -0700)
Phoenix-Deer Valley Municipal

Weather History for KDVT - May, 2019

Change the Weather History Date:

Thursday, May 23, 2019

  Actual Average Record
Temperature  
Mean Temperature 62 °F -  
Max Temperature 73 °F 93 °F 107 °F (2001)
Min Temperature 50 °F 67 °F 50 °F (2019)
Degree Days  
Heating Degree Days 4    
Growing Degree Days 12 (Base 50)    
Moisture  
Dew Point 40 °F    
Average Humidity 46    
Maximum Humidity 86    
Minimum Humidity 24    
Precipitation  
Precipitation 0.04 in - - ()
Sea Level Pressure  
Sea Level Pressure 29.88 in    
Wind  
Wind Speed 9 mph (ESE)    
Max Wind Speed 18 mph    
Max Gust Speed 18 mph    
Visibility 10 miles    
Events Rain    
Averages and records for this station are not official NWS values.
T = Trace of Precipitation, MM = Missing Value Source: NWS Daily Summary

Daily Weather History Graph

Daily Weather History Graph

Search for Another Location

Airport or City:

Astronomy

May. 23, 2019 Rise Set
Actual Time 5:22 AM MST 7:27 PM MST
Civil Twilight 4:54 AM MST 7:55 PM MST
Nautical Twilight 4:20 AM MST 8:30 PM MST
Astronomical Twilight 3:43 AM MST 9:06 PM MST
Moon 11:56 PM MST (5/23) 9:30 AM MST (5/23)
Length of Visible Light 15h 01m
Length of Day
14h 05m
Waning Gibbous, 76% of the Moon is Illuminated
May 23
Waning Gibbous
May 26
Last Quarter
Jun 3
New
Jun 9
First Quarter
Jun 17
Full

Hourly Weather History & Observations

Time (MST) Temp. Dew Point Humidity Pressure Visibility Wind Dir Wind Speed Gust Speed Precip Events Conditions
12:53 AM 62.1 °F 37.9 °F 41% 29.69 in 10.0 mi West 12.7 mph - N/A   Overcast
1:53 AM 59.0 °F 42.1 °F 53% 29.72 in 10.0 mi WSW 18.4 mph - N/A   Mostly Cloudy
2:53 AM 54.0 °F 45.0 °F 72% 29.76 in 10.0 mi West 10.4 mph - 0.00 in   Overcast
3:53 AM 54.0 °F 43.0 °F 66% 29.77 in 7.0 mi SSE 4.6 mph - 0.04 in Rain Light Rain
4:53 AM 51.1 °F 46.0 °F 83% 29.80 in 10.0 mi ENE 6.9 mph - 0.00 in   Partly Cloudy
5:53 AM 50.0 °F 46.0 °F 86% 29.82 in 10.0 mi East 6.9 mph - N/A   Clear
6:53 AM 54.0 °F 46.0 °F 75% 29.85 in 10.0 mi ESE 8.1 mph - N/A   Clear
7:53 AM 57.0 °F 48.0 °F 72% 29.88 in 10.0 mi SSE 8.1 mph - N/A   Clear
8:53 AM 57.9 °F 46.9 °F 67% 29.90 in 10.0 mi SSE 6.9 mph - N/A   Mostly Cloudy
9:53 AM 61.0 °F 45.0 °F 56% 29.92 in 10.0 mi SSW 5.8 mph 17.3 mph N/A   Mostly Cloudy
10:53 AM 64.0 °F 42.1 °F 45% 29.94 in 10.0 mi South 9.2 mph - N/A   Mostly Cloudy
11:53 AM 66.0 °F 37.9 °F 36% 29.95 in 10.0 mi North - - N/A   Scattered Clouds
12:53 PM 69.1 °F 36.0 °F 30% 29.95 in 10.0 mi SSW 12.7 mph 18.4 mph N/A   Partly Cloudy
1:53 PM 70.0 °F 35.1 °F 28% 29.95 in 10.0 mi Variable 3.5 mph - N/A   Scattered Clouds
2:53 PM 70.0 °F 35.1 °F 28% 29.94 in 10.0 mi Variable 3.5 mph - N/A   Scattered Clouds
3:53 PM 70.0 °F 34.0 °F 27% 29.92 in 10.0 mi Calm Calm - N/A   Scattered Clouds
4:53 PM 73.0 °F 34.0 °F 24% 29.91 in 10.0 mi Calm Calm - N/A   Partly Cloudy
5:53 PM 73.0 °F 35.1 °F 25% 29.89 in 10.0 mi Calm Calm - N/A   Clear
6:53 PM 71.1 °F 34.0 °F 26% 29.89 in 10.0 mi Calm Calm - N/A   Clear
7:53 PM 69.1 °F 35.1 °F 29% 29.90 in 10.0 mi NE 5.8 mph - N/A   Clear
8:53 PM 66.0 °F 35.1 °F 32% 29.91 in 10.0 mi NNE 8.1 mph - N/A   Clear
9:53 PM 64.0 °F 37.0 °F 37% 29.92 in 10.0 mi NNE 10.4 mph - N/A   Clear
10:53 PM 63.0 °F 37.0 °F 38% 29.92 in 10.0 mi NNE 9.2 mph - N/A   Clear
11:53 PM 63.0 °F 36.0 °F 37% 29.91 in 10.0 mi NNE 10.4 mph - N/A   Clear